Погода в Пакине

Россия / Владимирская область     56°21′36″N   41°14′12″E
темп.,
°C
ветер,
м/с
пор.,
м/с
влажн.,
%
обл.,
%
осадки,
мм/ч
давл.,
гПа
погр.,
м
7 августа, вс
вс700:00+19ююв37709 0.0 1019132
03:00+18ююз23744 0.0 101947
06:00+20ю386664 0.0 1019176
09:00+25ююз365067 0.0 1018545
12:00+27ююз464789 0.0 1018698
15:00+30ю353590 0.0 10162027
18:00+28ю26420 0.1 1016439
21:00+19ссв410857 0.3 1018236
8 августа, пн
пн800:00+17ссв12962 1.4 101957
03:00+16ссв269885 1.4 1019138
06:00+17ссз2598100 0.2 1021176
09:00+20ссв3585100 0.2 1021404
12:00+23с346299 0.0 1021832
15:00+25ссв335424 0.0 1021988
18:00+23с346147 0.0 1020496
21:00+17св35868 0.8 102191
9 августа, вт
вт900:00+16св259573 0.2 1021106
03:00+15с2498100 3.6 1021133
06:00+16ссв2696100 3.1 1021208
09:00+17всв3895100 4.9 1019295
12:00+19всв2285100 0.0 1020297
15:00+19с2293100 0.4 1019108
18:00+19сз1393100 0.4 1019134
21:00+17всв2398100 4.5 1019107
10 августа, ср
ср1000:00+16ссз2398100 0.7 1019105
03:00+15сз2299100 0.7 101961
06:00+15с2498100 0.0 1018171
09:00+18сз2389100 0.0 1019441
12:00+20з2376100 0.7 1019719
15:00+20зсз237736 3.0 1018794
18:00+19сз368243 1.9 1018452
21:00+14з38950 2.1 1018165
11 августа, чт
чт1100:00+13зсз411973 0.0 1019315
03:00+13сз4897100 0.0 1020429
06:00+14ссз389490 0.0 1021646
09:00+18с47700 0.0 1022906
12:00+22с454732 0.0 10221962
15:00+24ссз353855 0.0 10222372
18:00+22ссз254816 0.0 1022274
21:00+15сз2271100 0.0 102312